Terug naar catalogus

MOS 1B

MOMO 1B

ActiefWetenschapSSO
NORAD 20478·PAYLOAD·🇯🇵 Japan

Gelanceerd Feb 7, 1990 vanaf Tanegashima Space Center

Loading…

Volgende Passages (komende 24 uur)

TLE

VersSource: Space-Track

Epoch: Sep 13, 2026, 18:47 UTC

1 20478U 90013A   26256.78298994 -.00000166  00000-0 -87792-4 0  9993
2 20478  99.2101 317.9530 0004674 309.4837  50.5911 13.96085425784393

Volg MOS 1B in realtime met AllMySat

Download on the App Store